Hourly Weather Roundup
Issued by NWS Central Illinois

Home | Current Version | Previous Version | Text Only | Print | Product List | Glossary On
Versions: 1 2 3 4 5 6 7 8 9 10 11 12 13 14 15 16 17 18 19 20 21 22 23 24 25 26 27 28 29 30 31 32 33 34 35 36 37 38 39 40 41 42 43 44 45 46 47 48 49 50
000
NZUS43 KILX 300510
HWRILX

AREA WEATHER ROUNDUP
NATIONAL WEATHER SERVICE, LINCOLN IL
1200 AM CDT SAT MAY 30 2015


CITY           SKY/WX    TMP DP  RH WIND       PRES   REMARKS
BLOOMINGTON    CLOUDY    69  68  97 SW10      30.00S
CHAMPAIGN      CLOUDY    70  65  84 SW10      30.00S
DANVILLE       CLOUDY    71  64  79 SW8       29.98S
DECATUR        CLOUDY    70  66  87 SW5       29.99F
EFFINGHAM      MOCLDY    68  64  86 SE6       30.02S
FLORA          CLEAR     67  66  98 CALM      30.02S
GALESBURG      CLOUDY    69  65  88 SW7       29.98S
JACKSONVILLE   LGT RAIN  72  68  87 SW6       29.99R
LACON          CLOUDY    70  66  87 SW3       29.97S
LAWRENCEVILLE  CLEAR     70  65  84 W6        30.02F
LITCHFIELD     CLOUDY    68  65  90 S9        30.00S
$$


CITY           SKY/WX    TMP DP  RH WIND       PRES   REMARKS
LINCOLN        CLOUDY    71  68  90 S5        29.97S
MACOMB         LGT RAIN  69  66  90 SW6       30.01S
MATTOON        CLOUDY    68  65  90 S7        29.99F
MT CARMEL AP   CLEAR     72  63  73 SE5       30.02F
OLNEY-NOBLE AP PTCLDY    66  64  94 CALM      30.02F
PARIS          CLOUDY    72  63  75 S5        30.01F
PEORIA         CLOUDY    72  68  87 SW5       29.98S
PONTIAC        MOCLDY    70  67  90 SW7       29.98S
RANTOUL        CLOUDY    71  69  94 SW5       29.99F
ROBINSON       PTCLDY    70  64  83 S5        30.03S
SPRINGFIELD    LGT RAIN  72  69  90 S9        29.99S
TAYLORVILLE    CLOUDY    68  64  88 S9        30.00S
$$

...REGIONAL REPORTS...


CITY           SKY/WX    TMP DP  RH WIND       PRES   REMARKS
CHICAGO O`HARE CLOUDY    73  66  78 SW10      29.94R
KANKAKEE       MOCLDY    69  65  89 S9        29.98S
MOLINE         CLOUDY    68  64  87 W6        29.96R
MOUNT VERNON   CLOUDY    68  63  83 CALM      30.05F
PITTSFIELD     RAIN      68  65  90 S5        30.03R
QUINCY         LGT RAIN  68  67  96 W5        30.00R FOG
ROCKFORD       CLOUDY    71  63  75 SW6       29.94S
$$


CITY           SKY/WX    TMP DP  RH WIND       PRES   REMARKS
BURLINGTON     CLOUDY    69  67  93 S9        29.97F
CEDAR RAPIDS   CLOUDY    66  65  96 S10       29.93S
DES MOINES     LGT RAIN  64  61  90 N15       29.97R
KIRKSVILLE     CLOUDY    67  66  97 S6        29.99F
OTTUMWA        CLOUDY    65  63  93 SW7       29.96S
ST LOUIS       LGT RAIN  72  66  83 CALM      30.00R
$$


CITY           SKY/WX    TMP DP  RH WIND       PRES   REMARKS
TERRE HAUTE    PTCLDY    69  68  96 S5        30.01F
EVANSVILLE     CLEAR     72  67  84 CALM      30.04S
INDIANAPOLIS   PTCLDY    72  64  76 S10       30.01F
LAFAYETTE      MOCLDY    73  65  75 S5        29.99S
MADISON        CLOUDY    67  63  87 N6        29.91R
MILWAUKEE      CLOUDY    72  64  76 SW8       29.90S
$$





USA.gov is the U.S. government's official web portal to all federal, state and local government web resources and services.